When you browse on this site, cookies collect data to enhance your experience and personalize the content and advertising you see.
Visit our Privacy Policy to learn more. By continuing to use the site, you agree to this use of cookies and data.
  • En España
  • Lista de países
  • Para 7 días
  • Temperatura del agua
  • El tiempo en el mapa
  • Informadores
  • user-avatar
    Iniciar sesión

    Tiempo cada hora Palermo

    Hoy, 20 Septiembre, Viernes

    Tiempo Temperatura Precipitaciones Viento Presión Humedad
    00:00 +26°C° 0 mm 1 mps 760 mmHg 85%
    01:00 +25°C° 0 mm 1 mps 760 mmHg 86%
    02:00 +25°C° 0 mm 1 mps 759 mmHg 87%
    03:00 +25°C° 0 mm 1 mps 759 mmHg 88%
    04:00 +24°C° 0 mm 1 mps 759 mmHg 89%
    05:00 +25°C° 0 mm 1 mps 759 mmHg 88%
    06:00 +25°C° 0 mm 1 mps 759 mmHg 87%
    07:00 +25°C° 0 mm 1 mps 759 mmHg 86%
    08:00 +27°C° 0 mm 1 mps 760 mmHg 74%
    09:00 +28°C° 0 mm 1 mps 760 mmHg 62%
    10:00 +30°C° 0 mm 1 mps 760 mmHg 51%
    11:00 +31°C° 0 mm 2 mps 760 mmHg 50%
    12:00 +31°C° 0 mm 2 mps 760 mmHg 50%
    13:00 +32°C° 0 mm 2 mps 760 mmHg 49%
    14:00 +31°C° 0.1 mm 2 mps 760 mmHg 52%
    15:00 +30°C° 0.1 mm 2 mps 760 mmHg 54%
    16:00 +30°C° 0.1 mm 2 mps 760 mmHg 57%
    17:00 +29°C° 0.1 mm 2 mps 761 mmHg 63%
    18:00 +28°C° 0.1 mm 2 mps 761 mmHg 69%
    19:00 +27°C° 0.1 mm 2 mps 761 mmHg 75%
    20:00 +26°C° 0 mm 2 mps 761 mmHg 77%
    21:00 +26°C° 0 mm 2 mps 761 mmHg 79%
    22:00 +26°C° 0 mm 2 mps 762 mmHg 81%
    23:00 +26°C° 0 mm 2 mps 762 mmHg 84%

    Mañana, 21 Septiembre, Sábado

    Tiempo Temperatura Precipitaciones Viento Presión Humedad
    00:00 +25°C° 0 mm 2 mps 762 mmHg 86%
    01:00 +25°C° 0 mm 2 mps 762 mmHg 88%
    02:00 +25°C° 0 mm 1 mps 762 mmHg 89%
    03:00 +24°C° 0 mm 1 mps 762 mmHg 90%
    04:00 +24°C° 0 mm 1 mps 762 mmHg 91%
    05:00 +24°C° 0 mm 1 mps 762 mmHg 89%
    06:00 +25°C° 0 mm 1 mps 762 mmHg 87%
    07:00 +25°C° 0 mm 1 mps 762 mmHg 85%
    08:00 +27°C° 0 mm 1 mps 762 mmHg 76%
    09:00 +28°C° 0 mm 1 mps 763 mmHg 66%
    10:00 +30°C° 0 mm 1 mps 763 mmHg 57%
    11:00 +30°C° 0 mm 2 mps 763 mmHg 56%
    12:00 +31°C° 0 mm 2 mps 763 mmHg 55%
    13:00 +31°C° 0 mm 3 mps 763 mmHg 54%
    14:00 +30°C° 0.1 mm 3 mps 763 mmHg 59%
    15:00 +29°C° 0.1 mm 2 mps 763 mmHg 65%
    16:00 +28°C° 0.1 mm 2 mps 762 mmHg 70%
    17:00 +28°C° 0 mm 2 mps 762 mmHg 72%
    18:00 +27°C° 0 mm 2 mps 762 mmHg 74%
    19:00 +27°C° 0 mm 2 mps 762 mmHg 76%
    20:00 +27°C° 0 mm 2 mps 762 mmHg 76%
    21:00 +26°C° 0 mm 2 mps 762 mmHg 76%
    22:00 +26°C° 0 mm 3 mps 763 mmHg 77%
    23:00 +26°C° 0 mm 2 mps 762 mmHg 77%

    Pasado mañana, 22 Septiembre, Domingo

    Tiempo Temperatura Precipitaciones Viento Presión Humedad
    00:00 +25°C° 0 mm 2 mps 762 mmHg 78%
    01:00 +25°C° 0 mm 2 mps 762 mmHg 79%
    02:00 +25°C° 0 mm 2 mps 762 mmHg 79%
    03:00 +25°C° 0 mm 2 mps 761 mmHg 80%
    04:00 +24°C° 0 mm 2 mps 761 mmHg 80%
    05:00 +24°C° 0 mm 3 mps 762 mmHg 80%
    06:00 +23°C° 0 mm 4 mps 762 mmHg 81%
    07:00 +23°C° 0 mm 5 mps 762 mmHg 81%
    08:00 +25°C° 0.3 mm 5 mps 762 mmHg 74%
    09:00 +26°C° 0.3 mm 5 mps 762 mmHg 67%
    10:00 +27°C° 0.3 mm 6 mps 762 mmHg 59%
    11:00 +29°C° 0 mm 5 mps 761 mmHg 51%
    12:00 +33°C° 0 mm 5 mps 761 mmHg 43%
    13:00 +35°C° 0 mm 5 mps 760 mmHg 36%
    14:00 +34°C° 0 mm 5 mps 760 mmHg 39%
    15:00 +34°C° 0 mm 4 mps 760 mmHg 42%
    16:00 +34°C° 0 mm 4 mps 760 mmHg 46%
    17:00 +31°C° 0 mm 3 mps 760 mmHg 52%
    18:00 +30°C° 0 mm 2 mps 760 mmHg 58%
    19:00 +29°C° 0 mm 2 mps 760 mmHg 64%
    20:00 +28°C° 0 mm 2 mps 760 mmHg 66%
    21:00 +28°C° 0 mm 2 mps 760 mmHg 68%
    22:00 +27°C° 0 mm 3 mps 761 mmHg 70%
    23:00 +27°C° 0 mm 3 mps 760 mmHg 69%

    23 Septiembre, Lunes

    Tiempo Temperatura Precipitaciones Viento Presión Humedad
    00:00 +26°C° 0 mm 4 mps 760 mmHg 68%
    01:00 +26°C° 0 mm 5 mps 760 mmHg 67%
    02:00 +26°C° 0 mm 4 mps 759 mmHg 67%
    03:00 +26°C° 0 mm 4 mps 759 mmHg 68%
    04:00 +26°C° 0 mm 3 mps 759 mmHg 68%
    05:00 +26°C° 0 mm 4 mps 759 mmHg 67%
    06:00 +26°C° 0 mm 4 mps 759 mmHg 66%
    07:00 +27°C° 0 mm 4 mps 759 mmHg 66%
    08:00 +28°C° 0 mm 4 mps 759 mmHg 62%
    09:00 +29°C° 0 mm 4 mps 759 mmHg 59%
    10:00 +32°C° 0 mm 5 mps 759 mmHg 55%
    11:00 +33°C° 0 mm 5 mps 759 mmHg 50%
    12:00 +35°C° 0 mm 5 mps 759 mmHg 45%
    13:00 +36°C° 0 mm 5 mps 759 mmHg 39%
    14:00 +35°C° 0 mm 5 mps 758 mmHg 44%
    15:00 +34°C° 0 mm 5 mps 758 mmHg 48%
    16:00 +33°C° 0 mm 6 mps 758 mmHg 53%
    17:00 +32°C° 0 mm 5 mps 758 mmHg 59%
    18:00 +30°C° 0 mm 5 mps 758 mmHg 66%
    19:00 +28°C° 0 mm 4 mps 758 mmHg 72%
    20:00 +28°C° 0 mm 4 mps 758 mmHg 75%
    21:00 +28°C° 0 mm 4 mps 758 mmHg 77%
    22:00 +27°C° 0 mm 3 mps 758 mmHg 79%
    23:00 +27°C° 0 mm 3 mps 758 mmHg 81%

    24 Septiembre, Martes

    Tiempo Temperatura Precipitaciones Viento Presión Humedad
    00:00 +26°C° 0 mm 4 mps 758 mmHg 83%
    01:00 +25°C° 0 mm 4 mps 758 mmHg 86%
    02:00 +25°C° 0 mm 4 mps 758 mmHg 85%
    03:00 +25°C° 0 mm 4 mps 758 mmHg 84%
    04:00 +23°C° 0 mm 4 mps 758 mmHg 83%
    05:00 +25°C° 0.1 mm 4 mps 758 mmHg 81%
    06:00 +25°C° 0.1 mm 4 mps 758 mmHg 79%
    07:00 +25°C° 0.1 mm 5 mps 758 mmHg 76%
    08:00 +26°C° 0 mm 5 mps 758 mmHg 68%
    09:00 +26°C° 0 mm 5 mps 758 mmHg 60%
    10:00 +27°C° 0 mm 5 mps 758 mmHg 52%
    11:00 +28°C° 0 mm 5 mps 758 mmHg 49%
    12:00 +28°C° 0 mm 5 mps 758 mmHg 47%
    13:00 +28°C° 0 mm 5 mps 758 mmHg 44%
    14:00 +28°C° 0 mm 5 mps 758 mmHg 46%
    15:00 +27°C° 0 mm 4 mps 758 mmHg 48%
    16:00 +26°C° 0 mm 4 mps 757 mmHg 51%
    17:00 +26°C° 0 mm 4 mps 757 mmHg 56%
    18:00 +25°C° 0 mm 4 mps 758 mmHg 61%
    19:00 +23°C° 0 mm 4 mps 758 mmHg 66%
    20:00 +23°C° 0 mm 4 mps 758 mmHg 68%
    21:00 +22°C° 0 mm 3 mps 758 mmHg 70%
    22:00 +22°C° 0 mm 3 mps 758 mmHg 72%
    23:00 +22°C° 0 mm 3 mps 758 mmHg 73%

    25 Septiembre, Miércoles

    Tiempo Temperatura Precipitaciones Viento Presión Humedad
    00:00 +22°C° 0 mm 3 mps 758 mmHg 75%
    01:00 +22°C° 0 mm 3 mps 758 mmHg 77%
    02:00 +21°C° 0 mm 3 mps 758 mmHg 78%
    03:00 +21°C° 0 mm 3 mps 757 mmHg 80%
    04:00 +21°C° 0 mm 2 mps 757 mmHg 81%
    05:00 +21°C° 0 mm 2 mps 757 mmHg 79%
    06:00 +21°C° 0 mm 2 mps 757 mmHg 77%
    07:00 +23°C° 0 mm 2 mps 757 mmHg 76%
    08:00 +24°C° 0 mm 2 mps 758 mmHg 68%
    09:00 +26°C° 0 mm 2 mps 758 mmHg 60%
    10:00 +27°C° 0 mm 2 mps 758 mmHg 52%
    11:00 +27°C° 0 mm 2 mps 758 mmHg 50%
    12:00 +28°C° 0 mm 2 mps 758 mmHg 48%
    13:00 +29°C° 0 mm 3 mps 758 mmHg 46%
    14:00 +28°C° 0 mm 3 mps 758 mmHg 48%
    15:00 +28°C° 0 mm 2 mps 758 mmHg 50%
    16:00 +28°C° 0 mm 2 mps 757 mmHg 52%
    17:00 +26°C° 0 mm 2 mps 758 mmHg 58%
    18:00 +25°C° 0 mm 2 mps 758 mmHg 63%
    19:00 +24°C° 0 mm 1 mps 758 mmHg 68%
    20:00 +24°C° 0 mm 1 mps 758 mmHg 70%
    21:00 +24°C° 0 mm 1 mps 758 mmHg 72%
    22:00 +23°C° 0 mm 1 mps 758 mmHg 74%
    23:00 +23°C° 0 mm 1 mps 758 mmHg 71%
    Mostrar más